TimeCDT,TemperatureF,Dew PointF,Humidity,Sea Level PressureIn,VisibilityMPH,Wind Direction,Wind SpeedMPH,Gust SpeedMPH,PrecipitationIn,Events,Conditions,WindDirDegrees,DateUTC
12:52 AM,73.0,54.0,51,29.84,10.0,SSW,10.4,-,N/A,,Clear,200,2013-06-15 05:52:00
1:52 AM,73.0,55.9,55,29.85,10.0,SSW,10.4,-,N/A,,Clear,210,2013-06-15 06:52:00
2:52 AM,72.0,57.9,61,29.85,10.0,SSW,11.5,-,N/A,,Clear,210,2013-06-15 07:52:00
3:52 AM,71.1,57.9,63,29.85,10.0,South,8.1,-,N/A,,Partly Cloudy,180,2013-06-15 08:52:00
4:52 AM,72.0,60.1,66,29.85,10.0,South,17.3,20.7,N/A,,Overcast,180,2013-06-15 09:52:00
5:52 AM,70.0,62.1,76,29.87,9.0,South,19.6,26.5,0.00,Rain,Light Rain,170,2013-06-15 10:52:00
6:52 AM,66.9,63.0,87,29.86,10.0,SSE,11.5,-,0.01,,Overcast,160,2013-06-15 11:52:00
7:52 AM,69.1,62.1,78,29.86,10.0,South,11.5,-,N/A,,Partly Cloudy,180,2013-06-15 12:52:00
8:52 AM,73.0,62.1,68,29.88,10.0,South,16.1,-,N/A,,Clear,190,2013-06-15 13:52:00
9:52 AM,79.0,61.0,54,29.86,10.0,SSW,24.2,31.1,N/A,,Clear,210,2013-06-15 14:52:00
10:52 AM,84.0,57.9,41,29.84,10.0,South,31.1,41.4,N/A,,Clear,190,2013-06-15 15:52:00
11:52 AM,87.1,57.9,37,29.84,10.0,South,31.1,40.3,N/A,,Clear,180,2013-06-15 16:52:00
12:52 PM,90.0,59.0,35,29.82,10.0,South,26.5,39.1,N/A,,Scattered Clouds,190,2013-06-15 17:52:00
1:52 PM,91.0,57.0,32,29.80,10.0,SW,24.2,31.1,N/A,,Partly Cloudy,220,2013-06-15 18:52:00
2:52 PM,93.9,55.9,28,29.78,10.0,SW,21.9,28.8,N/A,,Clear,230,2013-06-15 19:52:00
3:52 PM,93.9,53.1,25,29.77,10.0,WSW,15.0,24.2,N/A,,Scattered Clouds,240,2013-06-15 20:52:00
4:52 PM,95.0,53.1,24,29.75,10.0,SSW,11.5,21.9,N/A,,Partly Cloudy,210,2013-06-15 21:52:00
5:52 PM,93.9,54.0,26,29.74,10.0,South,13.8,21.9,N/A,,Clear,170,2013-06-15 22:52:00
6:52 PM,93.0,54.0,27,29.73,10.0,South,9.2,20.7,N/A,,Clear,190,2013-06-15 23:52:00
7:52 PM,91.0,57.9,33,29.73,10.0,South,19.6,-,N/A,,Clear,170,2013-06-16 00:52:00
8:52 PM,84.9,60.1,43,29.75,10.0,South,17.3,-,N/A,,Clear,170,2013-06-16 01:52:00
9:52 PM,82.9,60.1,46,29.77,10.0,South,17.3,-,N/A,,Clear,170,2013-06-16 02:52:00
10:52 PM,80.1,59.0,48,29.77,10.0,SSE,15.0,-,N/A,,Clear,150,2013-06-16 03:52:00
11:52 PM,79.0,57.9,48,29.84,10.0,NNE,12.7,-,N/A,,Scattered Clouds,30,2013-06-16 04:52:00